Change the Weather History Date:

Wednesday, July 24, 2013

  Actual Average (KGLD) Record (KGLD)
Temperature  
Mean Temperature 76 °F 76 °F  
Max Temperature 89 °F 90 °F 110 °F (1940)
Min Temperature 62 °F 62 °F 53 °F (2004)
Degree Days  
Heating Degree Days 0 0  
Month to date heating degree days 0  
Since 1 June heating degree days 37  
Since 1 July heating degree days 0  
Cooling Degree Days 10 11  
Month to date cooling degree days 257  
Year to date cooling degree days 477  
Since 1 June cooling degree days 436  
Growing Degree Days 26 (Base 50)    
Moisture  
Dew Point 62 °F    
Average Humidity 69    
Maximum Humidity 100    
Minimum Humidity 33    
Precipitation  
Precipitation 0.00 in 0.11 in 1.11 in (1994)
Month to date precipitation 2.68  
Year to date precipitation 12.41  
Snow  
Snow 0.00 in 0.00 in - ()
Month to date snowfall 0.0  
Since 1 June snowfall 0.0  
Since 1 July snowfall 0.0  
Snow Depth -    
Sea Level Pressure  
Sea Level Pressure 30.14 in    
Wind  
Wind Speed 5 mph (SE)    
Max Wind Speed 15 mph    
Max Gust Speed -    
Visibility 9 miles    
Events Rain    
T = Trace of Precipitation, MM = Missing Value Source: NWS Daily Summary

Daily Weather History Graph

Daily Weather History Graph

Search for Another Location

Airport or City:

Trip Planner

Search our weather history database for the weather conditions in past years. The results will help you decide how hot, cold, wet, or windy it might be!

Date:

Astronomy

Jul. 24, 2013 Rise Set
Actual Time 6:37 AM CDT 9:03 PM CDT
Civil Twilight 6:06 AM CDT 9:34 PM CDT
Nautical Twilight 5:28 AM CDT 10:12 PM CDT
Astronomical Twilight 4:46 AM CDT 10:54 PM CDT
Moon 10:12 PM CDT (7/24) 8:58 AM CDT (7/24)
Length of Visible Light 15h 27m
Length of Day
14h 26m
Waning Gibbous, 94% of the Moon is Illuminated
Jul 24
Waning Gibbous
Jul 29
Last Quarter
Aug 6
New
Aug 14
First Quarter
Aug 20
Full

Hourly Weather History & Observations

Time (CDT) Temp. Heat Index Dew Point Humidity Pressure Visibility Wind Dir Wind Speed Gust Speed Precip Events Conditions
12:15 AM 68.0 °F - 66.2 °F 94% 30.11 in 10.0 mi ENE 5.8 mph - N/A   Clear
12:35 AM 68.0 °F - 66.2 °F 94% 30.12 in 10.0 mi ENE 6.9 mph - N/A   Clear
12:55 AM 68.0 °F - 66.2 °F 94% 30.12 in 10.0 mi East 5.8 mph - N/A   Clear
1:15 AM 66.2 °F - 64.4 °F 94% 30.12 in 10.0 mi East 5.8 mph - N/A   Clear
1:35 AM 64.4 °F - 64.4 °F 100% 30.12 in 10.0 mi East 8.1 mph - N/A   Clear
1:55 AM 64.4 °F - 64.4 °F 100% 30.13 in 10.0 mi East 4.6 mph - N/A   Clear
2:15 AM 64.4 °F - 64.4 °F 100% 30.14 in 10.0 mi East 4.6 mph - N/A   Clear
2:35 AM 64.4 °F - 64.4 °F 100% 30.13 in 7.0 mi East 4.6 mph - N/A   Clear
2:55 AM 62.6 °F - 62.6 °F 100% 30.13 in 7.0 mi ESE 3.5 mph - N/A   Clear
3:15 AM 62.6 °F - 62.6 °F 100% 30.14 in 7.0 mi Calm Calm - N/A   Clear
3:35 AM 62.6 °F - 62.6 °F 100% 30.13 in 5.0 mi Calm Calm - N/A   Scattered Clouds
3:55 AM 64.4 °F - 64.4 °F 100% 30.13 in 7.0 mi Calm Calm - N/A   Overcast
4:15 AM 64.4 °F - 64.4 °F 100% 30.14 in 5.0 mi NE 4.6 mph - N/A   Overcast
4:35 AM 64.4 °F - 64.4 °F 100% 30.14 in 5.0 mi NE 4.6 mph - N/A   Overcast
4:55 AM 64.4 °F - 64.4 °F 100% 30.12 in 5.0 mi NE 6.9 mph - N/A   Overcast
5:15 AM 64.4 °F - 64.4 °F 100% 30.13 in 2.5 mi ENE 3.5 mph - N/A   Overcast
5:35 AM 64.4 °F - 64.4 °F 100% 30.13 in 1.5 mi ENE 3.5 mph - N/A   Overcast
5:55 AM 64.4 °F - 64.4 °F 100% 30.14 in 3.0 mi Calm Calm - N/A   Overcast
6:15 AM 64.4 °F - 64.4 °F 100% 30.14 in 4.0 mi ENE 3.5 mph - N/A   Overcast
6:35 AM 64.4 °F - 64.4 °F 100% 30.14 in 4.0 mi Calm Calm - N/A   Overcast
6:55 AM 64.4 °F - 64.4 °F 100% 30.15 in 4.0 mi ENE 3.5 mph - N/A   Overcast
7:15 AM 64.4 °F - 64.4 °F 100% 30.16 in 5.0 mi Calm Calm - N/A   Overcast
7:35 AM 64.4 °F - 64.4 °F 100% 30.16 in 5.0 mi Calm Calm - N/A   Overcast
7:55 AM 66.2 °F - 64.4 °F 94% 30.17 in 10.0 mi Calm Calm - N/A   Overcast
8:15 AM 66.2 °F - 64.4 °F 94% 30.18 in 10.0 mi East 4.6 mph - N/A   Overcast
8:35 AM 66.2 °F - 64.4 °F 94% 30.18 in 10.0 mi ESE 5.8 mph - N/A   Overcast
8:55 AM 66.2 °F - 64.4 °F 94% 30.19 in 10.0 mi East 5.8 mph - N/A   Overcast
9:15 AM 68.0 °F - 64.4 °F 88% 30.19 in 10.0 mi East 8.1 mph - N/A   Overcast
9:35 AM 68.0 °F - 64.4 °F 88% 30.20 in 10.0 mi East 8.1 mph - N/A   Overcast
9:55 AM 68.0 °F - 62.6 °F 83% 30.20 in 10.0 mi ESE 6.9 mph - N/A   Mostly Cloudy
10:15 AM 68.0 °F - 62.6 °F 83% 30.20 in 10.0 mi East 4.6 mph - N/A   Overcast
10:35 AM 69.8 °F - 62.6 °F 78% 30.20 in 10.0 mi SE 4.6 mph - N/A   Overcast
10:55 AM 71.6 °F - 62.6 °F 73% 30.20 in 10.0 mi SE 5.8 mph - N/A   Overcast
11:15 AM 71.6 °F - 62.6 °F 73% 30.20 in 10.0 mi SE 6.9 mph - N/A   Scattered Clouds
11:35 AM 73.4 °F - 62.6 °F 69% 30.19 in 10.0 mi SE 4.6 mph - N/A   Clear
11:55 AM 77.0 °F - 62.6 °F 61% 30.19 in 10.0 mi SE 5.8 mph - N/A   Clear
12:15 PM 77.0 °F - 62.6 °F 61% 30.19 in 10.0 mi SSE 8.1 mph - N/A   Clear
12:35 PM 78.8 °F - 62.6 °F 57% 30.19 in 10.0 mi South 8.1 mph - N/A   Clear
12:55 PM 78.8 °F - 62.6 °F 57% 30.19 in 10.0 mi South 5.8 mph - N/A   Clear
1:15 PM 78.8 °F - 62.6 °F 57% 30.18 in 10.0 mi SSW 6.9 mph - N/A   Clear
1:35 PM 80.6 °F 81.8 °F 62.6 °F 54% 30.17 in 10.0 mi SSE 4.6 mph - N/A   Clear
1:55 PM 82.4 °F 83.4 °F 62.6 °F 51% 30.17 in 10.0 mi South 9.2 mph - N/A   Clear
2:15 PM 82.4 °F 82.9 °F 60.8 °F 48% 30.16 in 10.0 mi SE 5.8 mph - N/A   Clear
2:35 PM 82.4 °F 82.9 °F 60.8 °F 48% 30.15 in 10.0 mi SSE 10.4 mph - N/A   Clear
2:55 PM 84.2 °F 84.4 °F 60.8 °F 45% 30.15 in 10.0 mi SE 6.9 mph - N/A   Clear
3:15 PM 86.0 °F 86.1 °F 60.8 °F 43% 30.14 in 10.0 mi South 8.1 mph - N/A   Clear
3:35 PM 86.0 °F 85.4 °F 59.0 °F 40% 30.12 in 10.0 mi SSW 6.9 mph - N/A   Clear
3:55 PM 87.8 °F 87.6 °F 60.8 °F 40% 30.12 in 10.0 mi South 10.4 mph - N/A   Clear
4:15 PM 87.8 °F 87.1 °F 59.0 °F 38% 30.11 in 10.0 mi Calm Calm - N/A   Clear
4:35 PM 87.8 °F 87.1 °F 59.0 °F 38% 30.11 in 10.0 mi South 6.9 mph - N/A   Clear
4:55 PM 87.8 °F 87.1 °F 59.0 °F 38% 30.10 in 10.0 mi South 5.8 mph - N/A   Clear
5:15 PM 89.6 °F 88.9 °F 59.0 °F 36% 30.09 in 10.0 mi South 8.1 mph - N/A   Clear
5:35 PM 89.6 °F 88.1 °F 57.2 °F 33% 30.09 in 10.0 mi SE 6.9 mph - N/A   Clear
5:55 PM 87.8 °F 86.1 °F 55.4 °F 33% 30.10 in 10.0 mi South 5.8 mph - N/A   Clear
6:15 PM 87.8 °F 86.5 °F 57.2 °F 35% 30.10 in 10.0 mi South 9.2 mph - N/A   Clear
6:35 PM 87.8 °F 86.5 °F 57.2 °F 35% 30.09 in 10.0 mi South 5.8 mph - N/A   Clear
6:55 PM 87.8 °F 86.5 °F 57.2 °F 35% 30.09 in 10.0 mi South 5.8 mph - N/A   Clear
7:15 PM 86.0 °F 84.5 °F 55.4 °F 35% 30.08 in 10.0 mi South 6.9 mph - N/A   Clear
7:35 PM 86.0 °F 84.5 °F 55.4 °F 35% 30.08 in 10.0 mi South 8.1 mph - N/A   Clear
7:55 PM 86.0 °F 84.9 °F 57.2 °F 37% 30.09 in 10.0 mi South 6.9 mph - N/A   Clear
8:15 PM 84.2 °F 83.8 °F 59.0 °F 42% 30.09 in 10.0 mi South 5.8 mph - N/A   Clear
8:35 PM 82.4 °F 82.5 °F 59.0 °F 45% 30.10 in 10.0 mi South 5.8 mph - N/A   Clear
8:55 PM 82.4 °F 82.5 °F 59.0 °F 45% 30.10 in 10.0 mi South 6.9 mph - N/A   Clear
9:15 PM 82.4 °F 82.5 °F 59.0 °F 45% 30.11 in 10.0 mi South 4.6 mph - N/A   Clear
9:35 PM 80.6 °F 81.5 °F 60.8 °F 51% 30.10 in 10.0 mi SE 5.8 mph - N/A   Clear
9:55 PM 80.6 °F 81.5 °F 60.8 °F 51% 30.10 in 10.0 mi SSE 6.9 mph - N/A   Clear
10:15 PM 80.6 °F 81.8 °F 62.6 °F 54% 30.11 in 10.0 mi South 5.8 mph - N/A   Clear
10:35 PM 80.6 °F 81.8 °F 62.6 °F 54% 30.12 in 10.0 mi SE 6.9 mph - N/A   Clear
10:55 PM 78.8 °F - 62.6 °F 57% 30.12 in 10.0 mi SE 9.2 mph - N/A   Clear
11:15 PM 78.8 °F - 62.6 °F 57% 30.11 in 10.0 mi SSE 11.5 mph - N/A   Scattered Clouds
11:35 PM 78.8 °F - 62.6 °F 57% 30.13 in 10.0 mi SE 10.4 mph - N/A Rain Light Rain
11:55 PM 77.0 °F - 60.8 °F 57% 30.13 in 10.0 mi SE 15.0 mph - N/A Rain Light Rain